Flag for Brazil Weather past 2 weeks in Campinas, São Paulo, Brazil

Now
84 °F

Scattered clouds.


Feels Like: 86 °F
Forecast: 67 / 80 °F
Wind: 9 mph from North

Location: Campinas Aeroporto

Current Time: Apr 18, 2015 at 2:21:51 PM

Latest Report: Apr 18, 2015 at 1:00 PM


Visibility: N/A

Pressure: 30.01 "Hg

Humidity: 51%

Dew point: 64 °F

Location of CampinasLocation

Historic Weather in Campinas — Graph

°F

Campinas temperature yesterday

Maximum temperature yesterday: 84 °F (at 3:00 PM)
Minimum temperature yesterday: 63 °F (at 5:00 AM)
Average temperature yesterday: 72 °F

Past Weeks' High & Low Weather Summary

 TemperatureHumidityPressure
High84 °F (Apr 4, 3:00 PM)100% (Apr 6, 2:00 AM)30.21 "Hg (Apr 6, 2:00 AM)
Low61 °F (Apr 7, 10:00 PM)32% (Apr 12, 4:00 PM)29.83 "Hg (Apr 6, 3:00 AM)
Average72 °F73%30.04 "Hg
* Reported Apr 3 1:00 PM — Apr 18 1:00 PM, Campinas, Weather by CustomWeather, © 2015

Note: Actual official high and low records may vary slightly from our data, if they occured in-between our weather recording intervals... More about our weather records

Advertising

Campinas weather history for previous 24 hours

 ConditionsComfort  
Time TempWeatherWind HumidityBarometerVisibility
1:00 PM
Sat, Apr 18
84 °FScattered clouds.9 mph51%30.01 "HgN/A
12:00 PM82 °FPartly sunny.12 mph55%30.04 "HgN/A
11:00 AM81 °FScattered clouds.12 mph58%30.04 "HgN/A
10:00 AM79 °FSunny.12 mph61%30.07 "Hg10 mi
9:00 AM75 °FSunny.9 mph65%30.07 "Hg10 mi
8:00 AM70 °FPassing clouds.7 mph83%30.07 "HgN/A
7:00 AM66 °FClear.6 mph94%30.04 "Hg6 mi
6:00 AM66 °FSunny.6 mph94%30.04 "Hg10 mi
5:00 AM66 °FClear.5 mph94%30.01 "Hg10 mi
4:00 AM66 °FClear.6 mph94%29.98 "Hg10 mi
3:00 AM68 °FClear.9 mph88%30.01 "Hg10 mi
2:00 AM68 °FClear.9 mph88%30.01 "Hg10 mi
1:00 AM68 °FClear.10 mph88%30.04 "Hg10 mi
12:00 AM68 °FClear.12 mph88%30.01 "Hg10 mi
11:00 PM
Fri, Apr 17
70 °FClear.14 mph83%30.04 "Hg10 mi
10:00 PM70 °FClear.12 mph83%30.07 "Hg10 mi
9:00 PM72 °FClear.15 mph83%30.04 "Hg10 mi
8:00 PM73 °FClear.9 mph78%30.01 "Hg10 mi
7:00 PM75 °FClear.12 mph69%30.01 "Hg10 mi
6:00 PM79 °FPassing clouds.12 mph61%30.01 "HgN/A
5:00 PM82 °FPassing clouds.6 mph40%30.01 "HgN/A
4:00 PM84 °FPassing clouds.3 mph43%30.01 "HgN/A
3:00 PM84 °FPassing clouds.3 mph45%30.04 "HgN/A
2:00 PM82 °FPassing clouds.2 mph45%30.04 "HgN/A
Weather by CustomWeather, © 2015

See weather overviewHow to use our weather pages